Regional Weather Roundup
Issued by NWS

Home | Current Version | Previous Version | Text Only | Print | Product List | Glossary On
Versions: 1 2 3 4 5 6 7 8 9 10 11 12 13 14 15 16 17 18 19 20 21 22 23 24 25 26 27 28 29 30 31 32 33 34 35 36 37 38 39 40 41 42 43 44 45 46 47 48 49 50
568
ASUS44 KBMX 301510
RWRAL

ALABAMA REGIONAL WEATHER ROUNDUP
NATIONAL WEATHER SERVICE BIRMINGHAM AL
1000 AM CDT THU MAR 30 2017

NOTE: "FAIR" INDICATES FEW OR NO CLOUDS BELOW 12,000 FEET
WITH NO SIGNIFICANT WEATHER AND/OR OBSTRUCTIONS TO VISIBILITY.

THE REMARK "TC" DENOTES TEMPERATURE IN DEGREES CELSIUS.

ALZ001>011-014-016>018-020-301600-
NORTH ALABAMA

CITY           SKY/WX    TMP DP  RH WIND       PRES   REMARKS
MUSCLE SHOALS  CLOUDY    72  55  55 S16G26    29.81R
HUNTSVILLE     CLOUDY    69  62  78 S22       29.80F
DECATUR        CLOUDY    67  60  78 S20G28    29.80F
HALEYVILLE     FAIR      69  57  65 S16G22    29.84R
GADSDEN        CLOUDY    68  62  81 S8        29.94F
$$

ALZ012-013-022-023-030>036-040>044-301600-
WEST CENTRAL ALABAMA

CITY           SKY/WX    TMP DP  RH WIND       PRES   REMARKS
TUSCALOOSA     CLOUDY    69  59  70 S16G29    29.84F
$$

ALZ015-024>027-033>036-040>044-301600-
CENTRAL ALABAMA

CITY           SKY/WX    TMP DP  RH WIND       PRES   REMARKS
BIRMINGHAM     CLOUDY    68  61  78 S14G20    29.94S
MONTGOMERY     MOSUNNY   74  63  68 S6        29.96F
SHELBY CO ARPT CLOUDY    68  64  87 S8        29.94S
MAXWELL AFB    MOSUNNY   73  64  75 S8        29.95F
GREENVILLE     CLOUDY    70  63  78 S6        29.95F
$$

ALZ019-021-028-029-037-038-045>048-301600-
EAST CENTRAL ALABAMA

CITY           SKY/WX    TMP DP  RH WIND       PRES   REMARKS
ANNISTON       CLOUDY    69  63  81 SW3       29.96S
ALEXANDER CITY PTSUNNY   69  62  77 S6        29.97F
AUBURN         MOSUNNY   71  60  68 S6        30.00F
$$

ALZ051>064-301600-
SOUTHWEST ALABAMA

CITY           SKY/WX    TMP DP  RH WIND       PRES   REMARKS
MOBILE         PTSUNNY   77  67  71 S13       29.92F
BROOKLEY FIELD PTSUNNY   76  72  87 SE13      29.93F
EVERGREEN      CLOUDY    72  66  81 S7        29.96F
$$

ALZ049-050-065>069-301600-
SOUTHEAST ALABAMA

CITY           SKY/WX    TMP DP  RH WIND       PRES   REMARKS
DOTHAN         SUNNY     74  62  66 SW6       30.03F
OZARK          MOSUNNY   73  64  73 SW3       30.00F
TROY           SUNNY     73  65  75 SE9       29.98F
EUFAULA        FAIR      77  61  57 S6        29.99F
$$




USA.gov is the U.S. government's official web portal to all federal, state and local government web resources and services.